• în Republica Moldova
  • Lista ţărilor
  • Pe 7 zile
  • Temperatura apei
  • Hartă satelitară
  • Meteo pe hartă
  • Widget-uri
  • user-avatar
    Intrare

    Meteo pe oră la Brisbane

    Astăzi, 24 Aprilie, Luni

    Timp Temperatura Precipitaţii Vânt Presiune Umiditate
    00:00 +18°C° 0 mm 2 m/s 764 mmHg 92%
    01:00 +18°C° 0 mm 2 m/s 764 mmHg 93%
    02:00 +18°C° 0 mm 2 m/s 764 mmHg 93%
    03:00 +17°C° 0 mm 3 m/s 764 mmHg 94%
    04:00 +17°C° 0 mm 3 m/s 763 mmHg 94%
    05:00 +17°C° 0,1 mm 3 m/s 764 mmHg 93%
    06:00 +18°C° 0,1 mm 3 m/s 764 mmHg 93%
    07:00 +18°C° 0,1 mm 3 m/s 764 mmHg 92%
    08:00 +20°C° 0,1 mm 3 m/s 764 mmHg 84%
    09:00 +22°C° 0,1 mm 3 m/s 764 mmHg 76%
    10:00 +25°C° 0 mm 3 m/s 764 mmHg 66%
    11:00 +26°C° 0,1 mm 3 m/s 763 mmHg 63%
    12:00 +26°C° 0,1 mm 3 m/s 763 mmHg 60%
    13:00 +27°C° 0,1 mm 3 m/s 763 mmHg 57%
    14:00 +26°C° 0 mm 3 m/s 762 mmHg 61%
    15:00 +26°C° 0 mm 4 m/s 762 mmHg 65%
    16:00 +25°C° 0 mm 4 m/s 762 mmHg 69%
    17:00 +22°C° 0 mm 3 m/s 762 mmHg 76%
    18:00 +21°C° 0 mm 3 m/s 763 mmHg 82%
    19:00 +19°C° 0 mm 2 m/s 763 mmHg 89%
    20:00 +18°C° 0 mm 2 m/s 763 mmHg 89%
    21:00 +18°C° 0 mm 2 m/s 763 mmHg 90%
    22:00 +18°C° 0 mm 2 m/s 763 mmHg 90%
    23:00 +17°C° 0 mm 2 m/s 763 mmHg 90%

    Mâine, 25 Aprilie, Marţi

    Timp Temperatura Precipitaţii Vânt Presiune Umiditate
    00:00 +17°C° 0 mm 2 m/s 762 mmHg 91%
    01:00 +17°C° 0 mm 2 m/s 762 mmHg 91%
    02:00 +17°C° 0 mm 2 m/s 762 mmHg 91%
    03:00 +16°C° 0 mm 2 m/s 762 mmHg 92%
    04:00 +16°C° 0 mm 1 m/s 762 mmHg 92%
    05:00 +18°C° 0 mm 1 m/s 762 mmHg 91%
    06:00 +18°C° 0 mm 1 m/s 762 mmHg 91%
    07:00 +19°C° 0 mm 1 m/s 762 mmHg 90%
    08:00 +21°C° 0 mm 1 m/s 762 mmHg 82%
    09:00 +23°C° 0 mm 1 m/s 762 mmHg 74%
    10:00 +25°C° 0 mm 1 m/s 762 mmHg 65%
    11:00 +26°C° 0 mm 1 m/s 761 mmHg 62%
    12:00 +27°C° 0 mm 1 m/s 761 mmHg 60%
    13:00 +27°C° 0 mm 2 m/s 760 mmHg 57%
    14:00 +27°C° 0 mm 2 m/s 759 mmHg 59%
    15:00 +26°C° 0 mm 3 m/s 759 mmHg 62%
    16:00 +26°C° 0 mm 3 m/s 759 mmHg 65%
    17:00 +24°C° 0 mm 3 m/s 759 mmHg 71%
    18:00 +21°C° 0 mm 3 m/s 759 mmHg 78%
    19:00 +20°C° 0 mm 3 m/s 760 mmHg 84%
    20:00 +19°C° 0 mm 3 m/s 760 mmHg 85%
    21:00 +19°C° 0 mm 3 m/s 760 mmHg 86%
    22:00 +18°C° 0 mm 3 m/s 760 mmHg 87%
    23:00 +18°C° 0 mm 3 m/s 759 mmHg 88%

    Poimâine, 26 Aprilie, Miercuri

    Timp Temperatura Precipitaţii Vânt Presiune Umiditate
    00:00 +18°C° 0 mm 3 m/s 759 mmHg 89%
    01:00 +18°C° 0 mm 3 m/s 759 mmHg 90%
    02:00 +18°C° 0 mm 3 m/s 758 mmHg 90%
    03:00 +17°C° 0 mm 3 m/s 758 mmHg 91%
    04:00 +17°C° 0 mm 4 m/s 758 mmHg 92%
    05:00 +18°C° 0 mm 4 m/s 758 mmHg 91%
    06:00 +18°C° 0 mm 4 m/s 758 mmHg 90%
    07:00 +19°C° 0 mm 4 m/s 758 mmHg 90%
    08:00 +21°C° 0 mm 4 m/s 758 mmHg 81%
    09:00 +23°C° 0 mm 5 m/s 758 mmHg 72%
    10:00 +27°C° 0 mm 5 m/s 758 mmHg 64%
    11:00 +27°C° 0,1 mm 5 m/s 757 mmHg 60%
    12:00 +28°C° 0,1 mm 5 m/s 756 mmHg 57%
    13:00 +29°C° 0,1 mm 5 m/s 755 mmHg 53%
    14:00 +29°C° 0,5 mm 5 m/s 755 mmHg 57%
    15:00 +28°C° 0,5 mm 5 m/s 755 mmHg 61%
    16:00 +28°C° 0,5 mm 5 m/s 754 mmHg 65%
    17:00 +26°C° 1 mm 5 m/s 754 mmHg 70%
    18:00 +23°C° 1 mm 5 m/s 755 mmHg 75%
    19:00 +22°C° 1 mm 4 m/s 755 mmHg 80%
    20:00 +21°C° 0,3 mm 4 m/s 755 mmHg 81%
    21:00 +20°C° 0,3 mm 4 m/s 756 mmHg 82%
    22:00 +20°C° 0,3 mm 4 m/s 756 mmHg 83%
    23:00 +19°C° 0 mm 5 m/s 756 mmHg 81%

    27 Aprilie, Joi

    Timp Temperatura Precipitaţii Vânt Presiune Umiditate
    00:00 +17°C° 0 mm 5 m/s 757 mmHg 79%
    01:00 +16°C° 0 mm 5 m/s 757 mmHg 77%
    02:00 +15°C° 0 mm 5 m/s 757 mmHg 77%
    03:00 +14°C° 0 mm 5 m/s 757 mmHg 77%
    04:00 +13°C° 0 mm 5 m/s 757 mmHg 77%
    05:00 +13°C° 0 mm 5 m/s 757 mmHg 74%
    06:00 +12°C° 0 mm 5 m/s 758 mmHg 71%
    07:00 +12°C° 0 mm 5 m/s 759 mmHg 68%
    08:00 +14°C° 0 mm 5 m/s 759 mmHg 60%
    09:00 +16°C° 0 mm 5 m/s 759 mmHg 52%
    10:00 +19°C° 0 mm 5 m/s 759 mmHg 44%
    11:00 +20°C° 0 mm 5 m/s 758 mmHg 41%
    12:00 +22°C° 0 mm 4 m/s 758 mmHg 38%
    13:00 +23°C° 0 mm 4 m/s 757 mmHg 35%
    14:00 +22°C° 0 mm 3 m/s 757 mmHg 38%
    15:00 +22°C° 0 mm 3 m/s 757 mmHg 41%
    16:00 +22°C° 0 mm 3 m/s 757 mmHg 44%
    17:00 +20°C° 0 mm 3 m/s 758 mmHg 51%
    18:00 +17°C° 0 mm 3 m/s 758 mmHg 58%
    19:00 +14°C° 0 mm 3 m/s 759 mmHg 65%
    20:00 +14°C° 0 mm 4 m/s 760 mmHg 65%
    21:00 +13°C° 0 mm 4 m/s 760 mmHg 64%
    22:00 +13°C° 0 mm 4 m/s 760 mmHg 64%
    23:00 +12°C° 0 mm 4 m/s 760 mmHg 64%

    28 Aprilie, Vineri

    Timp Temperatura Precipitaţii Vânt Presiune Umiditate
    00:00 +12°C° 0 mm 4 m/s 760 mmHg 64%
    01:00 +11°C° 0 mm 4 m/s 760 mmHg 65%
    02:00 +11°C° 0 mm 4 m/s 760 mmHg 66%
    03:00 +11°C° 0 mm 4 m/s 760 mmHg 68%
    04:00 +11°C° 0 mm 4 m/s 760 mmHg 69%
    05:00 +11°C° 0 mm 4 m/s 760 mmHg 70%
    06:00 +11°C° 0 mm 4 m/s 761 mmHg 71%
    07:00 +12°C° 0 mm 4 m/s 761 mmHg 72%
    08:00 +14°C° 0 mm 5 m/s 761 mmHg 65%
    09:00 +17°C° 0 mm 5 m/s 761 mmHg 58%
    10:00 +20°C° 0 mm 5 m/s 761 mmHg 51%
    11:00 +21°C° 0 mm 4 m/s 760 mmHg 47%
    12:00 +22°C° 0 mm 4 m/s 760 mmHg 44%
    13:00 +25°C° 0 mm 4 m/s 759 mmHg 41%
    14:00 +23°C° 0 mm 4 m/s 759 mmHg 44%
    15:00 +23°C° 0 mm 4 m/s 759 mmHg 47%
    16:00 +23°C° 0 mm 4 m/s 759 mmHg 50%
    17:00 +21°C° 0 mm 5 m/s 759 mmHg 57%
    18:00 +19°C° 0 mm 5 m/s 760 mmHg 65%
    19:00 +16°C° 0 mm 5 m/s 761 mmHg 72%
    20:00 +16°C° 0 mm 5 m/s 761 mmHg 74%
    21:00 +15°C° 0 mm 5 m/s 761 mmHg 76%
    22:00 +15°C° 0 mm 6 m/s 761 mmHg 78%
    23:00 +14°C° 0 mm 5 m/s 761 mmHg 78%

    29 Aprilie, Sâmbătă

    Timp Temperatura Precipitaţii Vânt Presiune Umiditate
    00:00 +14°C° 0 mm 5 m/s 760 mmHg 78%
    01:00 +14°C° 0 mm 5 m/s 760 mmHg 79%
    02:00 +13°C° 0 mm 5 m/s 760 mmHg 78%
    03:00 +13°C° 0 mm 5 m/s 760 mmHg 78%
    04:00 +12°C° 0 mm 4 m/s 760 mmHg 77%
    05:00 +12°C° 0 mm 4 m/s 760 mmHg 77%
    06:00 +13°C° 0 mm 4 m/s 761 mmHg 76%
    07:00 +13°C° 0 mm 4 m/s 761 mmHg 76%
    08:00 +17°C° 0 mm 4 m/s 761 mmHg 67%
    09:00 +19°C° 0 mm 4 m/s 761 mmHg 58%
    10:00 +22°C° 0 mm 4 m/s 761 mmHg 48%
    11:00 +24°C° 0 mm 3 m/s 760 mmHg 44%
    12:00 +25°C° 0 mm 3 m/s 759 mmHg 39%
    13:00 +26°C° 0 mm 3 m/s 759 mmHg 34%
    14:00 +26°C° 0 mm 3 m/s 759 mmHg 38%
    15:00 +26°C° 0 mm 3 m/s 758 mmHg 41%
    16:00 +26°C° 0 mm 2 m/s 758 mmHg 44%
    17:00 +23°C° 0 mm 2 m/s 759 mmHg 51%
    18:00 +19°C° 0 mm 2 m/s 759 mmHg 58%
    19:00 +16°C° 0 mm 2 m/s 760 mmHg 65%
    20:00 +15°C° 0 mm 2 m/s 760 mmHg 63%
    21:00 +15°C° 0 mm 2 m/s 760 mmHg 62%
    22:00 +14°C° 0 mm 3 m/s 761 mmHg 61%
    23:00 +14°C° 0 mm 3 m/s 761 mmHg 64%
    Arată mai mult